2015-11-01 00:06:16 r, 15.66m,0000000047Hz,0000009574c,0000000.021s, 022.2C,00002195
2015-11-01 00:16:17 r, 15.45m,0000000058Hz,0000007921c,0000000.017s, 022.2C,00002195
2015-11-01 00:26:15 r, 15.37m,0000000065Hz,0000007312c,0000000.016s, 022.2C,00002195
2015-11-01 00:36:15 r, 15.45m,0000000059Hz,0000007846c,0000000.017s, 022.2C,00002195
2015-11-01 00:46:17 r, 15.77m,0000000043Hz,0000010570c,0000000.023s, 022.2C,00002195
2015-11-01 00:56:15 r, 15.95m,0000000038Hz,0000012497c,0000000.027s, 022.2C,00002195
2015-11-01 01:06:15 r, 16.02m,0000000035Hz,0000013341c,0000000.029s, 022.2C,00002195
2015-11-01 01:16:16 r, 15.81m,0000000043Hz,0000010982c,0000000.024s, 022.2C,00002195
2015-11-01 01:26:15 r, 15.45m,0000000059Hz,0000007934c,0000000.017s, 022.2C,00002195
2015-11-01 01:36:15 r, 15.33m,0000000065Hz,0000007063c,0000000.015s, 022.2C,00002195
2015-11-01 01:46:16 r, 15.24m,0000000070Hz,0000006527c,0000000.014s, 022.2C,00002195
2015-11-01 01:56:15 r, 15.38m,0000000063Hz,0000007395c,0000000.016s, 022.2C,00002195
2015-11-01 01:06:15 r, 15.60m,0000000051Hz,0000009070c,0000000.020s, 022.2C,00002195
2015-11-01 01:16:17 r, 15.68m,0000000048Hz,0000009743c,0000000.021s, 022.2C,00002195
2015-11-01 01:26:15 r, 15.64m,0000000048Hz,0000009462c,0000000.021s, 022.2C,00002195
2015-11-01 01:36:15 r, 15.74m,0000000045Hz,0000010299c,0000000.022s, 022.2C,00002195
2015-11-01 01:46:17 r, 15.35m,0000000064Hz,0000007213c,0000000.016s, 022.2C,00002195
2015-11-01 01:56:15 r, 15.25m,0000000071Hz,0000006548c,0000000.014s, 022.2C,00002195
2015-11-01 02:06:16 r, 15.24m,0000000072Hz,0000006482c,0000000.014s, 022.2C,00002195
2015-11-01 02:16:16 r, 15.18m,0000000075Hz,0000006140c,0000000.013s, 022.2C,00002195
2015-11-01 02:26:16 r, 15.23m,0000000072Hz,0000006461c,0000000.014s, 022.2C,00002195
2015-11-01 02:36:15 r, 15.29m,0000000067Hz,0000006786c,0000000.015s, 022.2C,00002195
2015-11-01 02:46:16 r, 15.09m,0000000081Hz,0000005651c,0000000.012s, 021.9C,00002195
2015-11-01 02:56:16 r, 15.13m,0000000079Hz,0000005857c,0000000.013s, 022.2C,00002195
2015-11-01 03:06:15 r, 15.18m,0000000076Hz,0000006167c,0000000.013s, 022.2C,00002195
2015-11-01 03:16:16 r, 15.11m,0000000079Hz,0000005780c,0000000.013s, 022.2C,00002195
2015-11-01 03:26:17 r, 15.24m,0000000071Hz,0000006494c,0000000.014s, 021.9C,00002195
2015-11-01 03:36:16 r, 15.22m,0000000073Hz,0000006384c,0000000.014s, 021.9C,00002195
2015-11-01 03:46:15 r, 15.15m,0000000076Hz,0000005992c,0000000.013s, 021.9C,00002195
2015-11-01 03:56:15 r, 15.22m,0000000073Hz,0000006378c,0000000.014s, 021.9C,00002195
2015-11-01 04:06:15 r, 15.35m,0000000063Hz,0000007147c,0000000.016s, 021.9C,00002195
2015-11-01 04:16:15 r, 15.30m,0000000067Hz,0000006905c,0000000.015s, 021.9C,00002195
2015-11-01 04:26:16 r, 15.51m,0000000055Hz,0000008342c,0000000.018s, 021.9C,00002195
2015-11-01 04:36:15 r, 15.43m,0000000060Hz,0000007769c,0000000.017s, 021.9C,00002195
2015-11-01 04:46:15 r, 15.26m,0000000069Hz,0000006631c,0000000.014s, 021.9C,00002195
2015-11-01 04:56:16 r, 15.33m,0000000065Hz,0000007049c,0000000.015s, 021.9C,00002195
2015-11-01 05:06:16 r, 15.39m,0000000062Hz,0000007427c,0000000.016s, 021.9C,00002195
2015-11-01 05:16:16 r, 15.31m,0000000066Hz,0000006961c,0000000.015s, 021.9C,00002195
2015-11-01 05:26:16 r, 15.22m,0000000072Hz,0000006391c,0000000.014s, 021.9C,00002195
2015-11-01 05:36:15 r, 15.13m,0000000078Hz,0000005866c,0000000.013s, 022.2C,00002195
2015-11-01 05:46:15 r, 15.12m,0000000079Hz,0000005801c,0000000.013s, 022.2C,00002195
2015-11-01 05:56:16 r, 15.11m,0000000081Hz,0000005734c,0000000.012s, 021.9C,00002195
2015-11-01 06:06:15 r, 15.02m,0000000085Hz,0000005333c,0000000.012s, 022.2C,00002195
2015-11-01 06:16:17 r, 14.96m,0000000092Hz,0000005042c,0000000.011s, 022.2C,00002195
2015-11-01 06:26:16 r, 14.85m,0000000102Hz,0000004552c,0000000.010s, 022.2C,00002195
2015-11-01 06:36:15 r, 14.51m,0000000140Hz,0000000000c,0000000.000s, 022.2C,00002195
2015-11-01 06:46:16 r, 13.26m,0000000441Hz,0000000000c,0000000.000s, 022.2C,00002195
2015-11-01 06:56:16 r, 11.56m,0000002112Hz,0000000000c,0000000.000s, 022.2C,00002195
2015-11-01 07:06:15 r, 09.82m,0000010528Hz,0000000000c,0000000.000s, 022.2C,00002195
2015-11-01 07:16:15 r, 08.45m,0000037316Hz,0000000000c,0000000.000s, 022.5C,00002195
2015-11-01 07:26:15 r, 07.76m,0000070437Hz,0000000000c,0000000.000s, 022.5C,00002195
2015-11-01 07:36:16 r, 07.17m,0000120330Hz,0000000000c,0000000.000s, 022.8C,00002195
2015-11-01 07:46:15 r, 06.69m,0000186918Hz,0000000000c,0000000.000s, 022.8C,00002195
2015-11-01 07:56:17 r, 06.35m,0000257174Hz,0000000000c,0000000.000s, 022.8C,00002195
2015-11-01 08:06:15 r, 00.00m,0000442540Hz,0000000000c,0000000.000s, 022.8C,00002195
2015-11-01 08:16:16 r, 00.00m,0000563894Hz,0000000000c,0000000.000s, 023.2C,00002195
2015-11-01 08:26:16 r, 00.00m,0000563912Hz,0000000000c,0000000.000s, 023.2C,00002195
2015-11-01 08:36:15 r, 00.00m,0000556029Hz,0000000000c,0000000.000s, 023.2C,00002195
2015-11-01 08:46:17 r, 00.00m,0000563939Hz,0000000000c,0000000.000s, 023.2C,00002195
2015-11-01 08:56:15 r, 00.00m,0000563914Hz,0000000000c,0000000.000s, 023.2C,00002195
2015-11-01 09:06:15 r, 00.00m,0000563962Hz,0000000000c,0000000.000s, 023.2C,00002195
2015-11-01 09:16:16 r, 00.00m,0000563923Hz,0000000000c,0000000.000s, 023.2C,00002195
2015-11-01 09:26:16 r, 00.00m,0000563917Hz,0000000000c,0000000.000s, 023.2C,00002195
2015-11-01 09:36:16 r, 00.00m,0000563907Hz,0000000000c,0000000.000s, 023.2C,00002195
2015-11-01 09:46:16 r, 00.00m,0000563880Hz,0000000000c,0000000.000s, 023.5C,00002195
2015-11-01 09:56:17 r, 00.00m,0000564007Hz,0000000000c,0000000.000s, 023.5C,00002195
2015-11-01 10:06:15 r, 00.00m,0000563917Hz,0000000000c,0000000.000s, 023.8C,00002195
2015-11-01 10:16:16 r, 00.00m,0000564002Hz,0000000000c,0000000.000s, 023.8C,00002195
2015-11-01 10:26:15 r, 00.00m,0000564163Hz,0000000000c,0000000.000s, 024.4C,00002195
2015-11-01 10:36:15 r, 00.00m,0000564114Hz,0000000000c,0000000.000s, 024.8C,00002195
2015-11-01 10:46:18 r, 00.00m,0000564182Hz,0000000000c,0000000.000s, 025.1C,00002195
2015-11-01 10:56:16 r, 00.00m,0000564135Hz,0000000000c,0000000.000s, 024.8C,00002195
2015-11-01 11:06:15 r, 00.00m,0000564093Hz,0000000000c,0000000.000s, 024.8C,00002195
2015-11-01 11:16:17 r, 00.00m,0000564176Hz,0000000000c,0000000.000s, 024.8C,00002195
2015-11-01 11:26:16 r, 00.00m,0000564193Hz,0000000000c,0000000.000s, 024.8C,00002195
2015-11-01 11:36:15 r, 00.00m,0000564069Hz,0000000000c,0000000.000s, 024.8C,00002195
2015-11-01 11:46:15 r, 00.00m,0000564154Hz,0000000000c,0000000.000s, 024.8C,00002195
2015-11-01 11:56:18 r, 00.00m,0000564134Hz,0000000000c,0000000.000s, 025.1C,00002195
2015-11-01 12:06:15 r, 00.00m,0000564213Hz,0000000000c,0000000.000s, 026.1C,00002195
2015-11-01 12:16:15 r, 00.00m,0000564311Hz,0000000000c,0000000.000s, 026.4C,00002195
2015-11-01 12:26:15 r, 00.00m,0000564309Hz,0000000000c,0000000.000s, 026.7C,00002195
2015-11-01 12:36:15 r, 00.00m,0000564252Hz,0000000000c,0000000.000s, 026.4C,00002195
2015-11-01 12:46:15 r, 00.00m,0000564249Hz,0000000000c,0000000.000s, 026.7C,00002195
2015-11-01 12:56:16 r, 00.00m,0000564353Hz,0000000000c,0000000.000s, 027.0C,00002195
2015-11-01 13:06:15 r, 00.00m,0000564302Hz,0000000000c,0000000.000s, 027.0C,00002195
2015-11-01 13:16:15 r, 00.00m,0000564337Hz,0000000000c,0000000.000s, 026.7C,00002195
2015-11-01 13:26:16 r, 00.00m,0000564347Hz,0000000000c,0000000.000s, 026.7C,00002195
2015-11-01 13:36:15 r, 00.00m,0000564358Hz,0000000000c,0000000.000s, 026.7C,00002195
2015-11-01 13:46:17 r, 00.00m,0000564234Hz,0000000000c,0000000.000s, 026.7C,00002195
2015-11-01 13:56:15 r, 00.00m,0000564269Hz,0000000000c,0000000.000s, 026.4C,00002195
2015-11-01 14:06:15 r, 00.00m,0000564235Hz,0000000000c,0000000.000s, 026.4C,00002195
2015-11-01 14:16:15 r, 00.00m,0000564313Hz,0000000000c,0000000.000s, 026.7C,00002195
2015-11-01 14:26:15 r, 00.00m,0000564309Hz,0000000000c,0000000.000s, 026.7C,00002195
2015-11-01 14:36:15 r, 00.00m,0000564361Hz,0000000000c,0000000.000s, 026.7C,00002195
2015-11-01 14:46:15 r, 00.00m,0000564274Hz,0000000000c,0000000.000s, 026.7C,00002195
2015-11-01 14:56:16 r, 00.00m,0000564470Hz,0000000000c,0000000.000s, 027.0C,00002195
2015-11-01 15:06:15 r, 00.00m,0000564375Hz,0000000000c,0000000.000s, 027.0C,00002195
2015-11-01 15:16:15 r, 00.00m,0000564392Hz,0000000000c,0000000.000s, 026.7C,00002195
2015-11-01 15:26:16 r, 00.00m,0000564311Hz,0000000000c,0000000.000s, 026.7C,00002195
2015-11-01 15:36:15 r, 00.00m,0000564384Hz,0000000000c,0000000.000s, 026.7C,00002195
2015-11-01 15:46:15 r, 00.00m,0000564303Hz,0000000000c,0000000.000s, 026.7C,00002195
2015-11-01 15:56:17 r, 00.00m,0000564273Hz,0000000000c,0000000.000s, 026.4C,00002195
2015-11-01 16:06:15 r, 00.00m,0000564253Hz,0000000000c,0000000.000s, 026.1C,00002195
2015-11-01 16:16:15 r, 00.00m,0000564273Hz,0000000000c,0000000.000s, 026.1C,00002195
2015-11-01 16:26:18 r, 00.00m,0000564331Hz,0000000000c,0000000.000s, 025.7C,00002195
2015-11-01 16:36:15 r, 00.00m,0000560354Hz,0000000000c,0000000.000s, 025.7C,00002195
2015-11-01 16:46:15 r, 06.76m,0000175180Hz,0000000000c,0000000.000s, 025.4C,00002195
2015-11-01 16:56:18 r, 07.62m,0000080270Hz,0000000000c,0000000.000s, 025.4C,00002195
2015-11-01 17:06:15 r, 08.08m,0000052046Hz,0000000000c,0000000.000s, 025.1C,00002195
2015-11-01 17:16:15 r, 09.77m,0000011070Hz,0000000000c,0000000.000s, 025.1C,00002195
2015-11-01 17:26:15 r, 11.27m,0000002766Hz,0000000000c,0000000.000s, 025.1C,00002195
2015-11-01 17:36:15 r, 13.08m,0000000521Hz,0000000000c,0000000.000s, 025.1C,00002195
2015-11-01 17:46:15 r, 14.34m,0000000163Hz,0000000000c,0000000.000s, 025.1C,00002195
2015-11-01 17:56:16 r, 14.67m,0000000119Hz,0000003858c,0000000.008s, 025.1C,00002195
2015-11-01 18:06:15 r, 14.70m,0000000116Hz,0000003966c,0000000.009s, 025.1C,00002195
2015-11-01 18:16:15 r, 14.69m,0000000118Hz,0000003920c,0000000.009s, 025.1C,00002195
2015-11-01 18:26:18 r, 14.67m,0000000120Hz,0000003829c,0000000.008s, 025.1C,00002195
2015-11-01 18:36:15 r, 14.69m,0000000117Hz,0000003934c,0000000.009s, 024.8C,00002195
2015-11-01 18:46:15 r, 14.77m,0000000111Hz,0000004220c,0000000.009s, 025.1C,00002195
2015-11-01 18:56:16 r, 14.77m,0000000107Hz,0000004253c,0000000.009s, 024.8C,00002195
2015-11-01 19:06:15 r, 15.04m,0000000086Hz,0000005401c,0000000.012s, 024.8C,00002195
2015-11-01 19:16:18 r, 15.22m,0000000071Hz,0000006369c,0000000.014s, 024.8C,00002195
2015-11-01 19:26:15 r, 15.13m,0000000078Hz,0000005879c,0000000.013s, 024.8C,00002195
2015-11-01 19:36:16 r, 14.94m,0000000092Hz,0000004948c,0000000.011s, 024.8C,00002195
2015-11-01 19:46:15 r, 15.12m,0000000079Hz,0000005834c,0000000.013s, 024.8C,00002195
2015-11-01 19:56:16 r, 15.57m,0000000052Hz,0000008872c,0000000.019s, 024.8C,00002195
2015-11-01 20:06:16 r, 15.89m,0000000038Hz,0000011888c,0000000.026s, 024.4C,00002195
2015-11-01 20:16:15 r, 15.90m,0000000039Hz,0000011930c,0000000.026s, 024.4C,00002195
2015-11-01 20:26:17 r, 15.87m,0000000040Hz,0000011569c,0000000.025s, 024.4C,00002195
2015-11-01 20:36:16 r, 16.04m,0000000034Hz,0000013541c,0000000.029s, 024.4C,00002195
2015-11-01 20:46:15 r, 15.91m,0000000038Hz,0000011971c,0000000.026s, 024.4C,00002195
2015-11-01 20:56:18 r, 15.90m,0000000039Hz,0000011910c,0000000.026s, 024.4C,00002195
2015-11-01 21:06:15 r, 16.24m,0000000029Hz,0000016342c,0000000.035s, 024.4C,00002195
2015-11-01 21:16:15 r, 16.21m,0000000029Hz,0000015816c,0000000.034s, 024.4C,00002195
2015-11-01 21:26:15 r, 16.65m,0000000020Hz,0000023727c,0000000.051s, 024.4C,00002195
2015-11-01 21:36:16 r, 17.11m,0000000013Hz,0000036569c,0000000.079s, 024.1C,00002195
2015-11-01 21:46:15 r, 16.92m,0000000015Hz,0000030500c,0000000.066s, 024.1C,00002195
2015-11-01 21:56:15 r, 16.65m,0000000019Hz,0000023823c,0000000.052s, 024.1C,00002195
2015-11-01 22:06:16 r, 16.49m,0000000022Hz,0000020498c,0000000.044s, 023.8C,00002195
2015-11-01 22:16:18 r, 16.85m,0000000016Hz,0000028643c,0000000.062s, 023.8C,00002195
2015-11-01 22:26:16 r, 18.14m,0000000005Hz,0000093945c,0000000.204s, 023.8C,00002195
2015-11-01 22:36:16 r, 17.94m,0000000006Hz,0000078563c,0000000.170s, 023.5C,00002195
2015-11-01 22:46:15 r, 17.46m,0000000009Hz,0000050090c,0000000.109s, 023.5C,00002195
2015-11-01 22:56:18 r, 17.36m,0000000010Hz,0000045957c,0000000.100s, 023.2C,00002195
2015-11-01 23:06:16 r, 17.23m,0000000011Hz,0000040665c,0000000.088s, 023.2C,00002195
2015-11-01 23:16:15 r, 16.29m,0000000027Hz,0000017089c,0000000.037s, 022.8C,00002195
2015-11-01 23:26:18 r, 16.17m,0000000030Hz,0000015349c,0000000.033s, 023.2C,00002195
2015-11-01 23:36:16 r, 15.79m,0000000043Hz,0000010841c,0000000.024s, 023.2C,00002195
2015-11-01 23:46:15 r, 15.89m,0000000039Hz,0000011893c,0000000.026s, 023.5C,00002195
2015-11-01 23:56:18 r, 15.56m,0000000053Hz,0000008725c,0000000.019s, 023.8C,00002195
